BREEZE-KM R/B, 44909

Orbit data source: Space-Track

BREEZE-KM R/B, 44909 is space debris in LEO originally from a launch on Thu, 26 Dec 2019 UTC via an ROKOT launch vehicle from the Plesetsk Missile And Space Complex (PKMTR). Debris objects in space refer to the collection of defunct objects orbiting the Earth. Examples of debris include non-operational satellites, rocket bodies, and fragments generated from explosions, collisions, or faulty payload assembly.

Loading next visibility...
Identifier
44909, 2019-096E
Orbit
LEO
Country
Flag of CISCIS
Related business
Manufacturer
SNIU/RESH
Mission
Operational Amateur Communications
Bus & Motor
YUBILYENIY, Unknown motor
Mass
~2,420 kg wet, ~50 kg dry
Launch date (UTC)
2019-12-26 (6 years ago)
Launch vehicle
ROKOT
Launch site
Plesetsk Missile And Space Complex (PKMTR)
Object type
Payload
Rocket body
Debris
Shape & HBR
Hex Cyl + 1 Rod, 2.0 m
Radar Cross Section
10.190 m², Large (>1 m²)

Expand to show TLE details & history
Last TLE update: 13 hours ago

TLE from 13 hours ago
0 BREEZE-KM R/B
1 44909U 19096E   25258.20215250  .00000024  00000-0  44988-4 0  9993
2 44909  82.5253 162.4368 0218523  67.3852 295.0204 12.79743481267176
Epoch: 2025-09-15T04:51Z
TLE epoch observation values (Epoch: 2025-09-15T04:51:05.975Z)
Latitude
-0.00005°
Longitude
95.2517°
Altitude
1,276.957 km
Speed
7.249 km/s
True Right ascension
10h 49m 44s
True Declination
0° 00' 00"
Sunlit
Object was in daylight at epoch
Visualization orbit readout
Latitude
Unknown
Longitude
Unknown
Altitude
Unknown
Speed
Unknown
Apparent Right ascension
Unknown
Apparent Declination
Unknown
Sunlit
N/A
Visualization observer readout
Local Sidereal Time
10:13:18
Azimuth
Unknown
Elevation
Unknown
Doppler factor
Unknown
Orbital elements
Apogee altitude
1,508.452 km
Perigee altitude
1,171.143 km
Semi-major axis
7,717.935 km
Eccentricity
0.02185
Inclination
82.5253°
RAAN
162.4368°
Arg. of periapsis
67.3852°
True anomaly
292.72541°
Mean anomaly
295.0204°
Eccentric anomaly
293.8755°
Mean motion
3.20104 °/min
Orbital period
112.46 mins
BSTAR
0.000044988
Loading maneuver chart data...
Computing Atmospheric mass density...
Loading historical data...
Loading historical data...
Loading historical data...
Loading historical data...
Loading historical data...
Loading historical data...
Loading historical data...

Documentation

Showing up to 5 results
|